This is the latest recevied weather packets stored in our database for station/object 9W3FAB-1. If no packets are shown the sender has not sent any weather packets the latest 10 day(s).
| Time | Temp. | Humidity | Pressure | Rain* | Wind** | Luminosity | Snow |
|---|---|---|---|---|---|---|---|
| 1777429879 | 29.44° C | 100% | 1009 hPa | - | - | - | - |
| 1777428978 | 29.44° C | 100% | 1009 hPa | - | - | - | - |
| 1777428077 | 28.89° C | 100% | 1009.2 hPa | - | - | - | - |
| 1777427176 | 28.89° C | 100% | 1009.2 hPa | - | - | - | - |
| 1777426276 | 28.33° C | 100% | 1009.1 hPa | - | - | - | - |
| 1777425375 | 28.33° C | 100% | 1009 hPa | - | - | - | - |
| 1777424474 | 27.78° C | 100% | 1009 hPa | - | - | - | - |
| 1777423573 | 27.78° C | 100% | 1009 hPa | - | - | - | - |
| 1777422672 | 27.22° C | 100% | 1008.9 hPa | - | - | - | - |
| 1777421772 | 27.22° C | 100% | 1008.8 hPa | - | - | - | - |
| 1777420871 | 27.22° C | 100% | 1008.5 hPa | - | - | - | - |
| 1777420056 | 27.78° C | 100% | 1008.4 hPa | - | - | - | - |
| 1777419155 | 27.22° C | 100% | 1008.2 hPa | - | - | - | - |
| 1777418254 | 26.67° C | 100% | 1008 hPa | - | - | - | - |
| 1777417354 | 27.22° C | 100% | 1007.5 hPa | - | - | - | - |
| 1777416452 | 27.78° C | 100% | 1007.3 hPa | - | - | - | - |
| 1777415551 | 27.78° C | 100% | 1007.3 hPa | - | - | - | - |
| 1777414649 | 27.78° C | 100% | 1007 hPa | - | - | - | - |
| 1777413748 | 27.78° C | 100% | 1006.9 hPa | - | - | - | - |
| 1777412847 | 27.22° C | 100% | 1006.8 hPa | - | - | - | - |
| 1777411947 | 27.22° C | 100% | 1006.8 hPa | - | - | - | - |
| 1777411046 | 26.67° C | 100% | 1006.7 hPa | - | - | - | - |
| 1777410145 | 27.78° C | 100% | 1006.8 hPa | - | - | - | - |
| 1777409244 | 27.22° C | 100% | 1006.7 hPa | - | - | - | - |
| 1777408343 | 27.22° C | 100% | 1006.7 hPa | - | - | - | - |
* Rain since midnight (hover to see other rain measurements)
** Current wind speed in m/s (hover to see current wind gust speed)